When you browse on this site, cookies collect data to enhance your experience and personalize the content and advertising you see.
Visit our Privacy Policy to learn more. By continuing to use the site, you agree to this use of cookies and data.
  • în România
  • Lista ţărilor
  • Pe 7 zile
  • Temperatura apei
  • Meteo pe hartă
  • Widget-uri
  • user-avatar
    Intrare

    Meteo pe oră la Mingachevir

    Astăzi, 21 August, Miercuri

    Timp Temperatura Precipitaţii Vânt Presiune Umiditate
    00:00 +25°C° 0 mm 3 m/s 753 mmHg 42%
    01:00 +24°C° 0 mm 2 m/s 753 mmHg 45%
    02:00 +24°C° 0 mm 1 m/s 753 mmHg 48%
    03:00 +23°C° 0 mm 1 m/s 753 mmHg 51%
    04:00 +23°C° 0 mm 1 m/s 754 mmHg 50%
    05:00 +24°C° 0 mm 1 m/s 754 mmHg 49%
    06:00 +24°C° 0 mm 1 m/s 754 mmHg 49%
    07:00 +27°C° 0 mm 1 m/s 754 mmHg 41%
    08:00 +30°C° 0 mm 1 m/s 753 mmHg 34%
    09:00 +32°C° 0 mm 1 m/s 753 mmHg 27%
    10:00 +35°C° 0 mm 2 m/s 753 mmHg 23%
    11:00 +37°C° 0 mm 3 m/s 752 mmHg 19%
    12:00 +40°C° 0 mm 4 m/s 752 mmHg 16%
    13:00 +41°C° 0 mm 4 m/s 751 mmHg 14%
    14:00 +42°C° 0 mm 4 m/s 751 mmHg 13%
    15:00 +42°C° 0 mm 4 m/s 751 mmHg 12%
    16:00 +41°C° 0 mm 4 m/s 750 mmHg 13%
    17:00 +40°C° 0 mm 4 m/s 750 mmHg 14%
    18:00 +38°C° 0 mm 3 m/s 750 mmHg 15%
    19:00 +35°C° 0 mm 4 m/s 750 mmHg 18%
    20:00 +33°C° 0 mm 4 m/s 750 mmHg 21%
    21:00 +30°C° 0 mm 4 m/s 751 mmHg 24%
    22:00 +28°C° 0 mm 4 m/s 751 mmHg 27%
    23:00 +27°C° 0 mm 3 m/s 751 mmHg 31%

    Mâine, 22 August, Joi

    Timp Temperatura Precipitaţii Vânt Presiune Umiditate
    00:00 +26°C° 0 mm 3 m/s 751 mmHg 34%
    01:00 +25°C° 0 mm 2 m/s 751 mmHg 36%
    02:00 +25°C° 0 mm 2 m/s 751 mmHg 38%
    03:00 +24°C° 0 mm 2 m/s 750 mmHg 40%
    04:00 +24°C° 0 mm 1 m/s 751 mmHg 40%
    05:00 +24°C° 0 mm 1 m/s 751 mmHg 40%
    06:00 +22°C° 0 mm 0 m/s 751 mmHg 39%
    07:00 +27°C° 0 mm 1 m/s 751 mmHg 34%
    08:00 +30°C° 0 mm 2 m/s 750 mmHg 29%
    09:00 +34°C° 0 mm 2 m/s 750 mmHg 24%
    10:00 +36°C° 0 mm 3 m/s 750 mmHg 21%
    11:00 +38°C° 0 mm 4 m/s 750 mmHg 17%
    12:00 +40°C° 0 mm 4 m/s 749 mmHg 14%
    13:00 +41°C° 0 mm 5 m/s 749 mmHg 13%
    14:00 +42°C° 0 mm 5 m/s 748 mmHg 11%
    15:00 +44°C° 0 mm 6 m/s 748 mmHg 10%
    16:00 +42°C° 0 mm 5 m/s 748 mmHg 11%
    17:00 +41°C° 0 mm 5 m/s 748 mmHg 12%
    18:00 +39°C° 0 mm 5 m/s 748 mmHg 13%
    19:00 +36°C° 0 mm 5 m/s 748 mmHg 16%
    20:00 +33°C° 0 mm 5 m/s 749 mmHg 19%
    21:00 +30°C° 0 mm 4 m/s 749 mmHg 23%
    22:00 +29°C° 0 mm 4 m/s 749 mmHg 25%
    23:00 +28°C° 0 mm 3 m/s 750 mmHg 27%

    Poimâine, 23 August, Vineri

    Timp Temperatura Precipitaţii Vânt Presiune Umiditate
    00:00 +27°C° 0 mm 3 m/s 750 mmHg 29%
    01:00 +26°C° 0 mm 3 m/s 750 mmHg 31%
    02:00 +25°C° 0 mm 2 m/s 750 mmHg 34%
    03:00 +25°C° 0 mm 2 m/s 750 mmHg 37%
    04:00 +25°C° 0 mm 2 m/s 750 mmHg 36%
    05:00 +25°C° 0 mm 2 m/s 750 mmHg 36%
    06:00 +26°C° 0 mm 1 m/s 750 mmHg 35%
    07:00 +28°C° 0 mm 1 m/s 750 mmHg 31%
    08:00 +31°C° 0 mm 1 m/s 750 mmHg 26%
    09:00 +35°C° 0 mm 2 m/s 750 mmHg 21%
    10:00 +37°C° 0 mm 3 m/s 750 mmHg 20%
    11:00 +40°C° 0 mm 4 m/s 750 mmHg 18%
    12:00 +42°C° 0 mm 6 m/s 749 mmHg 16%
    13:00 +42°C° 0 mm 6 m/s 749 mmHg 15%
    14:00 +44°C° 0 mm 7 m/s 749 mmHg 14%
    15:00 +44°C° 0 mm 7 m/s 748 mmHg 13%
    16:00 +43°C° 0 mm 7 m/s 748 mmHg 14%
    17:00 +41°C° 0 mm 6 m/s 748 mmHg 15%
    18:00 +40°C° 0 mm 5 m/s 748 mmHg 16%
    19:00 +37°C° 0 mm 5 m/s 749 mmHg 19%
    20:00 +34°C° 0 mm 4 m/s 749 mmHg 22%
    21:00 +32°C° 0 mm 4 m/s 750 mmHg 25%
    22:00 +29°C° 0 mm 4 m/s 750 mmHg 32%
    23:00 +28°C° 0 mm 3 m/s 750 mmHg 38%

    24 August, Sâmbătă

    Timp Temperatura Precipitaţii Vânt Presiune Umiditate
    00:00 +27°C° 0 mm 3 m/s 750 mmHg 45%
    01:00 +26°C° 0 mm 3 m/s 750 mmHg 46%
    02:00 +26°C° 0 mm 2 m/s 750 mmHg 46%
    03:00 +26°C° 0 mm 2 m/s 750 mmHg 47%
    04:00 +26°C° 0 mm 2 m/s 750 mmHg 49%
    05:00 +26°C° 0 mm 1 m/s 750 mmHg 50%
    06:00 +26°C° 0 mm 1 m/s 750 mmHg 52%
    07:00 +29°C° 0 mm 1 m/s 750 mmHg 45%
    08:00 +31°C° 0 mm 1 m/s 751 mmHg 38%
    09:00 +35°C° 0 mm 2 m/s 751 mmHg 31%
    10:00 +37°C° 0 mm 3 m/s 750 mmHg 27%
    11:00 +40°C° 0 mm 4 m/s 750 mmHg 23%
    12:00 +42°C° 0 mm 5 m/s 750 mmHg 19%
    13:00 +42°C° 0 mm 6 m/s 750 mmHg 18%
    14:00 +44°C° 0 mm 7 m/s 749 mmHg 17%
    15:00 +45°C° 0 mm 8 m/s 749 mmHg 15%
    16:00 +43°C° 0 mm 7 m/s 749 mmHg 16%
    17:00 +41°C° 0 mm 7 m/s 749 mmHg 16%
    18:00 +40°C° 0 mm 7 m/s 750 mmHg 17%
    19:00 +36°C° 0 mm 6 m/s 750 mmHg 22%
    20:00 +33°C° 0 mm 6 m/s 751 mmHg 28%
    21:00 +30°C° 0 mm 5 m/s 752 mmHg 33%
    22:00 +29°C° 0 mm 4 m/s 752 mmHg 35%
    23:00 +28°C° 0 mm 4 m/s 752 mmHg 37%

    25 August, Duminică

    Timp Temperatura Precipitaţii Vânt Presiune Umiditate
    00:00 +28°C° 0 mm 3 m/s 752 mmHg 38%
    01:00 +27°C° 0 mm 3 m/s 752 mmHg 39%
    02:00 +26°C° 0 mm 2 m/s 752 mmHg 40%
    03:00 +26°C° 0 mm 2 m/s 752 mmHg 41%
    04:00 +26°C° 0 mm 2 m/s 752 mmHg 40%
    05:00 +26°C° 0 mm 2 m/s 752 mmHg 39%
    06:00 +26°C° 0 mm 1 m/s 752 mmHg 38%
    07:00 +28°C° 0 mm 1 m/s 752 mmHg 33%
    08:00 +31°C° 0 mm 1 m/s 752 mmHg 28%
    09:00 +34°C° 0 mm 2 m/s 752 mmHg 24%
    10:00 +36°C° 0 mm 2 m/s 752 mmHg 20%
    11:00 +38°C° 0 mm 3 m/s 751 mmHg 17%
    12:00 +40°C° 0 mm 4 m/s 751 mmHg 13%
    13:00 +41°C° 0 mm 4 m/s 751 mmHg 13%
    14:00 +41°C° 0 mm 5 m/s 750 mmHg 12%
    15:00 +42°C° 0 mm 5 m/s 750 mmHg 12%
    16:00 +41°C° 0 mm 5 m/s 750 mmHg 13%
    17:00 +40°C° 0 mm 4 m/s 750 mmHg 14%
    18:00 +38°C° 0 mm 4 m/s 750 mmHg 14%
    19:00 +35°C° 0 mm 4 m/s 750 mmHg 17%
    20:00 +32°C° 0 mm 4 m/s 751 mmHg 19%
    21:00 +29°C° 0 mm 5 m/s 751 mmHg 21%
    22:00 +28°C° 0 mm 4 m/s 751 mmHg 25%
    23:00 +26°C° 0 mm 3 m/s 751 mmHg 28%

    26 August, Luni

    Timp Temperatura Precipitaţii Vânt Presiune Umiditate
    00:00 +25°C° 0 mm 3 m/s 752 mmHg 32%
    01:00 +25°C° 0.1 mm 2 m/s 751 mmHg 36%
    02:00 +24°C° 0.1 mm 2 m/s 751 mmHg 40%
    03:00 +24°C° 0.1 mm 2 m/s 751 mmHg 44%
    04:00 +24°C° 0.1 mm 1 m/s 751 mmHg 47%
    05:00 +24°C° 0.1 mm 1 m/s 751 mmHg 50%
    06:00 +21°C° 0.1 mm 0 m/s 752 mmHg 52%
    07:00 +26°C° 0 mm 1 m/s 751 mmHg 45%
    08:00 +28°C° 0 mm 1 m/s 751 mmHg 37%
    09:00 +30°C° 0 mm 2 m/s 751 mmHg 30%
    10:00 +32°C° 0 mm 2 m/s 751 mmHg 25%
    11:00 +35°C° 0 mm 2 m/s 751 mmHg 20%
    12:00 +36°C° 0 mm 1 m/s 751 mmHg 16%
    13:00 +38°C° 0 mm 2 m/s 750 mmHg 15%
    14:00 +39°C° 0 mm 2 m/s 750 mmHg 14%
    15:00 +39°C° 0 mm 3 m/s 750 mmHg 14%
    16:00 +38°C° 0 mm 3 m/s 750 mmHg 16%
    17:00 +37°C° 0 mm 3 m/s 750 mmHg 18%
    18:00 +36°C° 0 mm 3 m/s 751 mmHg 20%
    19:00 +34°C° 0 mm 4 m/s 752 mmHg 21%
    20:00 +33°C° 0 mm 5 m/s 752 mmHg 23%
    21:00 +30°C° 0 mm 6 m/s 753 mmHg 24%
    22:00 +29°C° 0 mm 6 m/s 753 mmHg 26%
    23:00 +28°C° 0 mm 5 m/s 754 mmHg 28%
    Arată mai mult